User: anonymous   Login
Location: Unspecified
(0.0000°N, 0.0000°E)
Time: 23:16:29
(UTC+02:00)
Language:

Delta 168 - Orbit

View from above orbital plane
View from above orbital plane
View from above satellite
View from above satellite

Ground track
Ground track

The orbit data is extracted from the following two-line orbital elements,

1 14051U 83041B   16121.68719066 +.00003981 +00000-0 +37206-3 0  9993
2 14051 025.3331 242.6782 1103164 176.3877 184.5382 13.07008579524402
Epoch (UTC): 30 April 2016 16:29:33
Eccentricity: 0.1103164
inclination: 25.3331°
perigee height: 395 km
apogee height: 2074 km
right ascension of ascending node: 242.6782°
argument of perigee: 176.3877°
revolutions per day: 13.07008579
mean anomaly at epoch: 184.5382°
orbit number at epoch: 52440

The dashed part of the orbit path shows where the satellite is in the earth's shadow,  

DLR